EW4221 Weather Reports


Display with metric or nautical units.
time (UTC)temp
F
wind
direction
speed
MPH
gust
MPH
rain 1hr
in
rain 24hr
in
rain mn
in
humidity
%
barometer
mb
20260905160049 70 328 4.0 13.0 0.00 0.00 0.00 73 1011.8
20260905154556 69 299 6.0 14.0 0.00 0.00 0.00 73 1011.8
20260905153042 69 15 7.0 16.0 0.00 0.00 0.00 73 1011.9
20260905151602 68 296 6.0 13.0 0.00 0.00 0.00 74 1011.9
20260905150042 67 15 6.0 14.0 0.00 0.00 0.00 78 1012.0
20260905144537 67 301 6.0 13.0 0.00 0.00 0.00 81 1011.9
20260905143028 65 338 4.0 13.0 0.00 0.00 0.00 83 1012.0
20260905141526 65 340 3.0 8.0 0.00 0.00 0.00 84 1012.1
20260905140028 65 323 3.0 8.0 0.00 0.00 0.00 86 1012.0
20260905134525 64 313 3.0 10.0 0.00 0.00 0.00 88 1012.0
20260905133021 63 327 5.0 10.0 0.00 0.00 0.00 89 1011.8
20260905131532 62 46 4.0 12.0 0.00 0.00 0.00 92 1012.0
20260905130019 62 12 4.0 12.0 0.00 0.00 0.00 92 1012.0
20260905124519 61 24 5.0 10.0 0.00 0.00 0.00 93 1011.9
20260905123016 62 40 4.0 9.0 0.00 0.00 0.00 94 1012.2
20260905121514 61 355 4.0 10.0 0.00 0.00 0.00 94 1012.1
20260905120021 61 311 4.0 9.0 0.00 0.00 0.00 94 1012.2
20260905114516 61 323 3.0 10.0 0.00 0.00 0.00 95 1012.1
20260905113006 60 329 3.0 9.0 0.00 0.00 0.00 95 1011.5
20260905111505 60 342 4.0 9.0 0.00 0.00 0.00 95 1011.2
20260905110005 60 333 3.0 8.0 0.00 0.00 0.00 95 1011.2
20260905104502 60 351 4.0 9.0 0.00 0.00 0.00 94 1011.0
20260905103100 60 341 3.0 8.0 0.00 0.00 0.00 94 1010.9
20260905101559 60 345 3.0 6.0 0.00 0.00 0.00 94 1010.8
20260905100059 60 310 1.0 7.0 0.00 0.00 0.00 93 1010.6
20260905094715 60 300 2.0 6.0 0.00 0.00 0.00 93 1010.4
20260905093104 60 345 2.0 8.0 0.00 0.00 0.00 93 1010.5
20260905091601 60 298 3.0 8.0 0.00 0.00 0.00 93 1010.3
20260905090053 60 281 3.0 6.0 0.00 0.00 0.00 92 1010.3
20260905084602 60 330 3.0 8.0 0.00 0.00 0.00 92 1010.3
20260905083050 61 343 3.0 6.0 0.00 0.00 0.00 93 1010.3
20260905081548 61 302 3.0 8.0 0.00 0.00 0.00 93 1010.4
20260905074559 61 329 3.0 6.0 0.00 0.00 0.00 93 1010.6
20260905073044 62 337 3.0 8.0 0.00 0.00 0.00 92 1010.6
20260905071548 61 330 2.0 5.0 0.00 0.00 0.00 92 1010.7
20260905070042 61 342 2.0 8.0 0.00 0.00 0.00 93 1010.7
20260905064540 61 319 2.0 6.0 0.00 0.00 0.00 93 1011.0
20260905063039 61 328 2.0 4.0 0.00 0.00 0.00 93 1011.0
20260905061553 61 340 2.0 4.0 0.00 0.00 0.00 93 1011.1
20260905060109 61 327 1.0 3.0 0.00 0.00 0.00 92 1011.0
20260905054545 61 317 0.0 3.0 0.00 0.00 0.00 91 1011.3
20260905053030 62 341 1.0 3.0 0.00 0.00 0.00 91 1011.4
20260905051535 62 37 1.0 2.0 0.00 0.00 0.00 89 1011.4
20260905050028 63 12 1.0 3.0 0.00 0.00 0.00 87 1011.5
20260905044522 64 328 0.0 4.0 0.00 0.00 0.00 86 1011.7
20260905041517 66 11 1.0 4.0 0.00 0.00 0.00 82 1011.5
20260905040018 66 5 2.0 5.0 0.00 0.00 0.00 81 1011.5
20260905034514 66 355 2.0 5.0 0.00 0.22 0.00 82 1011.4
20260905033011 66 360 3.0 5.0 0.00 0.22 0.00 82 1011.4
20260905031515 66 350 2.0 5.0 0.00 0.22 0.00 83 1011.4
20260905030010 66 340 1.0 4.0 0.00 0.22 0.00 84 1011.4
20260905024511 66 347 1.0 3.0 0.00 0.40 0.00 84 1011.4
20260905023016 67 346 1.0 3.0 0.00 0.40 0.00 84 1011.4
20260905021506 67 325 1.0 4.0 0.00 0.40 0.00 83 1011.4
20260905020004 67 5 1.0 8.0 0.00 0.40 0.00 81 1011.5
20260905014502 68 336 0.0 4.0 0.00 0.40 0.00 84 1011.6
20260905013005 68 326 2.0 5.0 0.00 0.40 0.00 83 1011.8
20260905011502 68 5 3.0 5.0 0.00 0.40 0.00 81 1011.7
20260905010001 69 350 3.0 6.0 0.00 0.40 0.00 80 1011.6
20260905004601 69 340 3.0 6.0 0.00 0.40 0.00 80 1011.5
20260905003102 69 360 3.0 8.0 0.00 0.40 0.00 78 1011.2
20260905001600 69 18 2.0 6.0 0.00 0.40 0.00 78 1011.1
20260905000131 69 5 3.0 8.0 0.00 0.40 0.00 77 1011.0
20260904234556 69 350 2.0 4.0 0.00 0.40 0.00 77 1011.0
20260904234521 69 27 2.0 4.0 0.00 0.40 0.00 77 1011.0
20260904233109 70 335 1.0 4.0 0.00 0.40 0.00 77 1010.9
20260904231656 70 346 2.0 4.0 0.00 0.40 0.00 76 1010.8
20260904230106 71 332 2.0 4.0 0.00 0.40 0.00 75 1010.8
20260904223105 72 348 2.0 5.0 0.00 0.40 0.00 72 1010.7
20260904221558 73 288 2.0 8.0 0.00 0.40 0.00 70 1010.6
20260904220046 74 355 3.0 8.0 0.00 0.40 0.00 68 1010.5
20260904214549 74 313 2.0 5.0 0.00 0.40 0.00 70 1010.4
20260904213142 74 29 2.0 9.0 0.00 0.40 0.00 69 1010.6
20260904211542 73 30 2.0 6.0 0.00 0.40 0.00 70 1010.6
20260904210040 75 355 3.0 10.0 0.00 0.40 0.00 68 1010.7
20260904204539 75 283 4.0 13.0 0.00 0.40 0.00 67 1010.9
20260904203038 75 333 3.0 9.0 0.00 0.40 0.00 68 1010.9
20260904201542 75 342 3.0 11.0 0.00 0.40 0.00 71 1011.0
20260904200048 75 324 3.0 12.0 0.00 0.40 0.00 68 1011.1
20260904194536 75 17 3.0 10.0 0.00 0.40 0.00 67 1011.2
20260904193040 76 301 6.0 13.0 0.00 0.40 0.00 62 1011.4
20260904191535 76 13 5.0 11.0 0.00 0.40 0.00 64 1011.4
20260904190034 76 246 5.0 13.0 0.00 0.40 0.00 65 1011.5
20260904184533 76 245 6.0 11.0 0.00 0.40 0.00 66 1011.7
20260904183031 76 348 4.0 12.0 0.00 0.40 0.00 66 1012.0
20260904181529 76 276 7.0 14.0 0.00 0.40 0.00 65 1011.9
20260904180029 76 323 4.0 9.0 0.00 0.40 0.00 64 1012.2
20260904174527 76 307 5.0 12.0 0.00 0.40 0.00 65 1012.3
20260904173023 75 336 5.0 14.0 0.00 0.40 0.00 70 1012.4
20260904171548 74 280 5.0 11.0 0.00 0.40 0.00 68 1012.5
20260904170021 74 355 4.0 11.0 0.00 0.40 0.00 69 1012.6
20260904164520 74 321 9.0 14.0 0.00 0.40 0.00 67 1012.5
20260904163038 74 345 6.0 11.0 0.00 0.40 0.00 64 1012.7
20260904161516 74 319 6.0 11.0 0.00 0.40 0.00 64 1012.7